STARLINK-2648 (48679 NORAD) Tracking and Keplerian Element Data

This shows tracking and keplerian element data for the satellite.

Feedback or suggestion? Click here.




ElementValue
Catalog48679
NameSTARLINK-2648
Epoch Orbit177
Epoch Day170.58334491
Epoch Year2021
RAAN306.2557
Inclination53.0477
Eccentricity0.0001257
Argument of Perigee46.1364
Mean Anonmoly80.731
Mean Motion15.73231923
Decay Rate-6.318E-05
L11 48679U 21044AT 21170.58334491 -.00006318 00000-0 -40562-4 0 9994
L22 48679 53.0477 306.2557 0001257 46.1364 80.7310 15.73231923 1779

Live tracking and technical data element details for STARLINK-2648 (NORAD 48679). STARLINK-2648 can be tracked NOW for your location showing map with azimuth and elevation plus other details from your city location.

Track the satellite on the map from your city or location and see movement details for azimuth, elevation, latitude, longitude, range, height, and movement on the map or in text.







IsCatalogInMostPopularTable: catalog: 48679, numindb: 3
Update: records affected: 1



GetName: 48679 STARLINK-2648

Hit Count: updated at: Mon, 21 Jun 2021 04:41:56 GMT